Lid_Strength_Index
2 2 2 2 2 2 2 2 2 2 2 1 0 1 1 2 3 6 9 7 7 4 5 10 11 11 11 11 9 11 15 16 16 16 15 11 12 11 11 10 10 8 6 5 3
3 3 3 3 3 2 2 2 2 2 2 2 1 0 0 0 4 7 5 3 4 4 9 11 13 12 13 12 11 12 16 14 13 13 13 12 12 12 12 11 10 7 5 3 3
4 4 3 3 3 3 3 3 3 2 2 2 1 1 0 1 6 7 2 3 4 5 8 10 11 11 13 11 11 12 14 13 13 12 11 11 13 13 13 13 10 8 6 5 4
4 4 4 3 3 3 3 3 3 3 2 2 1 1 1 4 11 7 2 2 3 7 9 10 11 13 13 13 11 14 12 12 11 11 11 12 12 13 12 11 10 6 5 5 5
4 4 4 3 3 3 2 2 2 2 2 1 1 1 5 9 8 7 3 4 6 6 9 11 12 12 14 13 13 13 12 12 12 12 12 12 13 14 12 10 10 10 9 5 5
3 3 3 3 3 2 2 1 1 1 1 1 1 1 7 11 8 8 8 7 7 8 9 10 11 11 13 13 13 12 13 13 13 12 13 13 14 14 10 9 10 10 8 6 5
3 3 2 2 2 1 1 1 0 -0 0 1 2 3 8 9 8 8 8 9 8 7 9 8 8 10 12 13 12 12 14 14 14 12 13 13 15 15 10 11 11 12 11 8 7
3 3 3 2 1 1 0 -1 -1 -2 -1 1 2 6 10 7 8 8 8 9 8 8 8 7 7 9 10 11 13 15 16 18 14 13 13 13 16 12 10 11 12 13 13 12 11
3 3 3 2 1 0 -0 -0 -1 -2 -0 0 5 8 10 5 8 8 9 10 8 8 9 9 9 11 12 14 15 15 19 18 15 13 14 15 16 13 12 12 12 13 14 13 13
3 3 3 2 1 0 1 0 0 2 3 3 4 10 7 9 8 8 8 9 10 10 10 11 13 16 16 16 19 17 17 16 16 14 15 17 17 14 14 13 14 14 14 15 14
3 3 3 2 1 2 4 6 7 9 7 9 9 8 7 5 6 7 8 9 10 11 15 13 17 18 16 15 15 15 16 16 14 13 14 15 15 14 13 15 15 15 15 14 13
3 3 2 1 2 3 6 8 8 5 10 7 7 7 5 5 7 6 7 11 12 15 14 15 18 14 14 14 15 16 18 17 15 13 14 15 15 13 13 13 12 13 13 13 12
3 3 2 2 3 6 8 8 5 4 12 10 6 8 7 6 8 8 8 9 12 14 14 15 14 13 14 15 16 16 17 18 17 15 15 16 15 14 12 12 12 11 11 11 12
3 3 2 2 7 8 9 7 6 5 16 12 9 8 8 7 9 6 7 9 10 12 12 13 12 13 14 15 15 17 14 14 15 17 20 16 20 16 14 12 12 11 11 11 11
4 3 3 3 8 10 9 7 6 8 28 13 10 6 9 11 9 8 7 8 10 11 11 13 12 13 14 14 13 14 14 14 15 17 19 18 21 17 14 14 13 12 11 11 10
4 3 3 7 9 9 8 7 9 21 28 15 11 13 14 12 10 9 9 7 8 10 10 11 9 10 11 11 12 11 13 13 15 19 23 17 18 17 15 14 13 12 12 11 12
4 4 5 7 11 7 8 11 21 25 16 17 16 15 15 15 14 12 12 12 13 15 15 12 12 9 10 13 11 11 14 19 20 21 21 17 19 16 14 14 13 12 12 12 12
4 4 6 6 7 8 10 17 26 23 19 14 15 14 15 15 14 14 15 16 10 11 14 16 17 11 10 12 13 13 14 18 23 22 21 18 19 16 14 12 12 12 11 12 13
5 10 8 8 7 8 13 22 22 17 15 16 15 16 17 14 15 15 16 15 10 10 14 15 15 9 9 10 11 13 16 13 17 16 19 18 17 14 13 14 14 14 14 14 14
11 12 10 8 8 11 17 18 17 14 14 14 17 16 19 16 17 17 16 12 12 11 10 12 17 10 10 9 10 11 10 16 16 21 22 19 19 17 16 15 14 15 15 15 14
13 14 10 8 10 15 23 25 15 13 14 14 16 16 16 17 17 18 17 12 11 12 11 11 14 14 11 13 13 13 14 14 14 16 21 22 20 15 16 15 15 15 14 15 14
13 20 11 10 18 26 25 19 13 14 13 13 14 15 16 16 17 16 17 13 11 11 15 12 13 17 14 11 10 10 12 12 17 18 16 17 17 12 11 12 12 12 14 14 13
16 18 10 12 24 27 20 16 14 15 14 14 15 14 14 16 22 16 16 12 10 12 13 11 18 20 19 15 13 15 15 13 14 14 17 19 18 10 11 12 11 12 11 13 13
16 21 18 17 17 18 23 21 20 13 14 13 14 13 15 16 15 21 16 12 11 12 9 10 15 17 21 18 15 17 15 15 16 17 16 16 15 12 12 12 12 12 11 11 13
18 21 18 25 22 17 16 18 20 19 13 13 15 15 15 23 17 20 16 14 12 10 11 13 23 16 16 13 15 14 16 16 17 17 17 16 16 13 12 12 11 10 10 10 11
20 19 17 20 16 16 17 18 16 16 14 16 15 14 14 21 16 18 15 14 14 13 13 12 19 17 19 16 14 15 14 15 14 13 14 13 15 13 12 13 11 10 10 11 11
14 12 13 17 18 20 18 15 14 13 13 12 14 14 15 13 12 12 11 11 12 13 14 15 15 23 22 16 19 22 17 14 13 12 12 15 14 13 13 13 13 13 12 12 12